Home   Weather   Libreville   Past weeks

Flag for Gabon Past Weather in Libreville, Gabon — Yesterday and Last 2 Weeks

Now
86 °F

Passing clouds.


Feels Like: 99 °F
Forecast: 80 / 87 °F
Wind: 10 mph from West

Location: Libreville Airport

Current Time: Apr 24, 2017 at 6:20:07 pm

Latest Report: Apr 24, 2017 at 5:00 pm


Visibility: N/A

Pressure: 29.77 "Hg

Humidity: 79%

Dew Point: 79 °F

Location of LibrevilleLocation

Past Weather in Libreville — Graph

°F

Libreville Temperature Yesterday

Maximum temperature yesterday: 81 °F (at 12:00 pm)
Minimum temperature yesterday: 75 °F (at 4:00 am)
Average temperature yesterday: 78 °F

High & Low Weather Summary for the Past Weeks

 TemperatureHumidityPressure
High90 °F (Apr 15, 12:00 pm)100% (Apr 10, 4:00 am)29.95 "Hg (Apr 10, 4:00 am)
Low73 °F (Apr 13, 8:00 pm)66% (Apr 16, 5:00 pm)29.68 "Hg (Apr 11, 4:00 pm)
Average82 °F87%29.82 "Hg
* Reported Apr 9 5:00 pm — Apr 24 5:00 pm, Libreville, Weather by CustomWeather, © 2017

Note: Actual official high and low records may vary slightly from our data, if they occured in-between our weather recording intervals... More about our weather records

Advertising

Libreville Weather History for the Previous 24 Hours

Scroll right to see more
 ConditionsComfort  
Time TempWeatherWind HumidityBarometerVisibility
5:00 pm
Mon, Apr 24
86 °FPassing clouds.10 mph79%29.77 "HgN/A
4:00 pm88 °FPassing clouds.9 mph75%29.80 "HgN/A
3:00 pm88 °FPassing clouds.9 mph70%29.83 "HgN/A
2:00 pm88 °FScattered clouds.7 mph75%29.83 "HgN/A
1:00 pm88 °FScattered clouds.6 mph70%29.86 "HgN/A
12:00 pm86 °FScattered clouds.6 mph75%29.89 "HgN/A
11:00 am86 °FScattered clouds.7 mph75%29.92 "HgN/A
10:00 am84 °FScattered clouds.8 mph79%29.92 "HgN/A
9:00 am84 °FScattered clouds.5 mph79%29.92 "HgN/A
8:00 am81 °FScattered clouds.2 mph94%29.92 "Hg5 mi
7:00 am79 °FScattered clouds.3 mph94%29.89 "Hg5 mi
6:00 am77 °FPassing clouds.1 mph100%29.86 "Hg5 mi
5:00 am77 °FPassing clouds.No wind100%29.86 "Hg5 mi
4:00 am77 °FPassing clouds.1 mph100%29.86 "Hg5 mi
3:00 am77 °FPassing clouds.1 mph100%29.86 "Hg5 mi
2:00 am77 °FPassing clouds.1 mph100%29.86 "Hg5 mi
1:00 am77 °FPassing clouds.No wind100%29.89 "HgN/A
12:00 am77 °FPassing clouds.3 mph100%29.86 "HgN/A
11:00 pm
Sun, Apr 23
77 °FPassing clouds.5 mph94%29.89 "HgN/A
10:00 pm79 °FPassing clouds.5 mph89%29.89 "HgN/A
9:00 pm79 °FPassing clouds.3 mph89%29.86 "HgN/A
8:00 pm79 °FPassing clouds.6 mph89%29.86 "HgN/A
7:00 pm79 °FPassing clouds.2 mph89%29.83 "HgN/A
6:00 pm81 °FScattered clouds.2 mph84%29.83 "HgN/A
Weather by CustomWeather, © 2017

See weather overviewHow to use our weather pages